�������l�o���
Date,Time,MP-1(��Sv/h),MP-2(��Sv/h),MP-3(��Sv/h),MP-4(��Sv/h),MP-5(��Sv/h),MP-6(��Sv/h),MP-7(��Sv/h),MP-8(��Sv/h),����,����(m/s),���J
2020/06/01,00:00,0.707,1.020,0.646,1.227,0.886,0.406,0.696,0.654,��쐼,6.9,��
2020/06/01,00:10,0.709,1.021,0.646,1.230,0.885,0.405,0.695,0.653,��쐼,5.7,��
2020/06/01,00:20,0.706,1.020,0.646,1.228,0.885,0.405,0.697,0.654,��쐼,6.0,��
2020/06/01,00:30,0.707,1.019,0.648,1.229,0.885,0.407,0.697,0.654,��쐼,5.4,��
2020/06/01,00:40,0.706,1.023,0.646,1.228,0.884,0.406,0.696,0.654,��쐼,4.8,��
2020/06/01,00:50,0.705,1.021,0.645,1.228,0.885,0.405,0.695,0.654,��쐼,5.5,��
2020/06/01,01:00,0.709,1.020,0.647,1.230,0.885,0.406,0.698,0.653,��쐼,5.8,�L
2020/06/01,01:10,0.707,1.020,0.646,1.227,0.885,0.406,0.697,0.652,�쐼,4.6,��
2020/06/01,01:20,0.709,1.019,0.645,1.231,0.884,0.405,0.697,0.654,��쐼,4.6,��
2020/06/01,01:30,0.707,1.021,0.645,1.229,0.884,0.406,0.697,0.654,��쐼,5.2,��
2020/06/01,01:40,0.708,1.020,0.646,1.230,0.886,0.405,0.695,0.652,��쐼,5.5,��
2020/06/01,01:50,0.707,1.019,0.644,1.230,0.884,0.406,0.697,0.653,��쐼,6.0,��
2020/06/01,02:00,0.707,1.018,0.647,1.230,0.885,0.405,0.697,0.653,��쐼,6.6,��
2020/06/01,02:10,0.705,1.019,0.647,1.227,0.885,0.405,0.697,0.654,��쐼,5.6,��
2020/06/01,02:20,0.706,1.019,0.646,1.229,0.885,0.405,0.698,0.653,��쐼,5.9,��
2020/06/01,02:30,0.708,1.018,0.646,1.230,0.886,0.405,0.697,0.652,��쐼,3.6,��
2020/06/01,02:40,0.706,1.023,0.645,1.231,0.886,0.404,0.696,0.651,��,4.3,��
2020/06/01,02:50,0.707,1.021,0.646,1.228,0.886,0.404,0.696,0.653,��,5.0,��
2020/06/01,03:00,0.706,1.020,0.646,1.227,0.887,0.405,0.696,0.653,��,4.9,��
2020/06/01,03:10,0.706,1.019,0.646,1.229,0.885,0.405,0.696,0.653,��,6.0,��
2020/06/01,03:20,0.705,1.021,0.647,1.231,0.886,0.404,0.696,0.654,��쐼,5.3,��
2020/06/01,03:30,0.708,1.020,0.646,1.229,0.887,0.405,0.695,0.653,��,6.1,�L
2020/06/01,03:40,0.708,1.017,0.646,1.229,0.884,0.405,0.695,0.653,��,6.0,�L
2020/06/01,03:50,0.707,1.021,0.645,1.229,0.884,0.404,0.697,0.653,��쐼,6.2,��
2020/06/01,04:00,0.707,1.021,0.645,1.230,0.886,0.404,0.696,0.654,��쐼,6.5,��
2020/06/01,04:10,0.706,1.018,0.644,1.228,0.886,0.403,0.696,0.653,��쐼,6.5,��
2020/06/01,04:20,0.707,1.018,0.647,1.230,0.886,0.404,0.697,0.654,��,5.5,��
2020/06/01,04:30,0.705,1.019,0.648,1.229,0.887,0.404,0.697,0.653,��,4.5,��
2020/06/01,04:40,0.707,1.021,0.645,1.226,0.885,0.404,0.696,0.653,��,4.3,��
2020/06/01,04:50,0.706,1.018,0.646,1.228,0.885,0.406,0.697,0.653,��,5.2,��
2020/06/01,05:00,0.707,1.018,0.647,1.227,0.885,0.405,0.697,0.653,��,5.8,��
2020/06/01,05:10,0.707,1.022,0.646,1.229,0.886,0.405,0.697,0.651,��,5.7,��
2020/06/01,05:20,0.708,1.019,0.645,1.230,0.886,0.405,0.697,0.653,��,5.6,��
2020/06/01,05:30,0.706,1.020,0.647,1.229,0.886,0.405,0.696,0.652,��,5.0,��
2020/06/01,05:40,0.706,1.020,0.646,1.229,0.883,0.405,0.697,0.654,��,5.2,��
2020/06/01,05:50,0.706,1.019,0.647,1.229,0.885,0.405,0.696,0.652,��,6.5,��
2020/06/01,06:00,0.708,1.022,0.646,1.229,0.885,0.406,0.697,0.653,��,7.3,��
2020/06/01,06:10,0.707,1.022,0.644,1.230,0.886,0.404,0.696,0.653,��,6.1,��
2020/06/01,06:20,0.707,1.022,0.646,1.228,0.884,0.405,0.696,0.653,��,6.0,��
2020/06/01,06:30,0.705,1.017,0.644,1.230,0.883,0.405,0.699,0.653,��,6.8,��
2020/06/01,06:40,0.706,1.019,0.644,1.229,0.884,0.403,0.698,0.653,��,6.3,��
2020/06/01,06:50,0.706,1.017,0.644,1.226,0.885,0.404,0.697,0.654,��,5.6,��
2020/06/01,07:00,0.706,1.017,0.643,1.228,0.884,0.403,0.696,0.653,��,5.2,��
2020/06/01,07:10,0.705,1.016,0.643,1.229,0.882,0.402,0.696,0.654,��,8.2,��
2020/06/01,07:20,0.706,1.017,0.645,1.228,0.883,0.403,0.697,0.654,��,9.1,��
2020/06/01,07:30,0.703,1.018,0.644,1.230,0.882,0.403,0.697,0.652,��,9.2,��
2020/06/01,07:40,0.702,1.016,0.645,1.229,0.885,0.404,0.696,0.652,��쓌,10.2,��
2020/06/01,07:50,0.705,1.015,0.646,1.230,0.885,0.404,0.695,0.651,��쓌,9.9,��
2020/06/01,08:00,0.705,1.017,0.643,1.230,0.884,0.403,0.696,0.649,��쓌,10.3,��
2020/06/01,08:10,0.706,1.017,0.642,1.228,0.884,0.404,0.695,0.651,��쓌,11.8,��
2020/06/01,08:20,0.706,1.017,0.644,1.229,0.885,0.403,0.695,0.652,��,10.7,��
2020/06/01,08:30,0.704,1.020,0.643,1.229,0.882,0.404,0.696,0.650,��쓌,10.0,��
2020/06/01,08:40,0.704,1.014,0.641,1.230,0.883,0.403,0.696,0.651,��쓌,12.0,��
2020/06/01,08:50,0.703,1.016,0.641,1.230,0.884,0.405,0.696,0.652,��쓌,12.0,��
2020/06/01,09:00,0.705,1.017,0.644,1.229,0.883,0.405,0.695,0.650,��쓌,10.9,��
2020/06/01,09:10,0.706,1.015,0.642,1.231,0.882,0.403,0.695,0.650,��쓌,11.9,��
2020/06/01,09:20,0.706,1.016,0.642,1.232,0.885,0.404,0.694,0.651,��쓌,10.7,��
2020/06/01,09:30,0.705,1.015,0.644,1.230,0.885,0.402,0.696,0.652,��쓌,11.3,��
2020/06/01,09:40,0.706,1.017,0.642,1.228,0.884,0.403,0.696,0.651,��쓌,11.3,��
2020/06/01,09:50,0.706,1.015,0.642,1.231,0.886,0.404,0.695,0.651,��쓌,12.0,��
2020/06/01,10:00,0.706,1.011,0.642,1.230,0.887,0.404,0.697,0.650,��,12.0,��
2020/06/01,10:10,0.707,1.014,0.642,1.229,0.884,0.404,0.695,0.652,��,10.2,��
2020/06/01,10:20,0.708,1.013,0.645,1.229,0.887,0.403,0.695,0.652,��,9.6,��
2020/06/01,10:30,0.705,1.013,0.645,1.229,0.885,0.404,0.696,0.650,��,9.6,��
2020/06/01,10:40,0.706,1.015,0.646,1.228,0.886,0.403,0.696,0.652,��,7.5,��
2020/06/01,10:50,0.706,1.014,0.646,1.232,0.886,0.403,0.696,0.651,��,6.9,��
2020/06/01,11:00,0.706,1.017,0.647,1.228,0.887,0.404,0.696,0.651,��,7.5,��
2020/06/01,11:10,0.706,1.016,0.647,1.228,0.884,0.404,0.696,0.651,��,9.9,��
2020/06/01,11:20,0.708,1.017,0.647,1.225,0.885,0.404,0.694,0.651,��,8.6,��
2020/06/01,11:30,0.707,1.017,0.646,1.226,0.887,0.403,0.697,0.650,��,7.9,��
2020/06/01,11:40,0.707,1.017,0.645,1.229,0.888,0.402,0.694,0.651,��,9.0,��
2020/06/01,11:50,0.707,1.019,0.646,1.229,0.887,0.403,0.697,0.652,��,9.8,��
2020/06/01,12:00,0.708,1.019,0.647,1.228,0.887,0.403,0.697,0.653,��,9.8,��
2020/06/01,12:10,0.708,1.019,0.649,1.228,0.890,0.404,0.696,0.651,��쐼,10.0,��
2020/06/01,12:20,0.707,1.019,0.649,1.229,0.888,0.403,0.695,0.652,��쐼,9.1,��
2020/06/01,12:30,0.709,1.021,0.645,1.231,0.885,0.404,0.696,0.652,��,6.6,�L
2020/06/01,12:40,0.707,1.022,0.643,1.232,0.887,0.405,0.694,0.651,��쐼,5.7,�L
2020/06/01,12:50,0.709,1.020,0.646,1.232,0.888,0.405,0.695,0.652,��,7.0,�L
2020/06/01,13:00,0.708,1.019,0.644,1.234,0.888,0.404,0.696,0.650,��쓌,7.5,��
2020/06/01,13:10,0.707,1.021,0.647,1.233,0.887,0.405,0.694,0.651,��,8.5,��
2020/06/01,13:20,0.709,1.018,0.648,1.233,0.888,0.402,0.696,0.652,��,11.3,��
2020/06/01,13:30,0.706,1.017,0.649,1.233,0.885,0.403,0.696,0.652,��,9.1,��
2020/06/01,13:40,0.706,1.015,0.650,1.234,0.887,0.403,0.696,0.652,��,8.8,��
2020/06/01,13:50,0.708,1.016,0.647,1.231,0.888,0.405,0.697,0.651,��,9.1,��
2020/06/01,14:00,0.708,1.017,0.650,1.231,0.889,0.403,0.696,0.652,��,7.9,��
2020/06/01,14:10,0.709,1.019,0.646,1.232,0.887,0.403,0.695,0.653,��,7.5,��
2020/06/01,14:20,0.707,1.016,0.646,1.229,0.888,0.404,0.697,0.652,��,6.3,��
2020/06/01,14:30,0.709,1.020,0.637,1.232,0.889,0.403,0.696,0.652,��쓌,6.8,��
2020/06/01,14:40,0.707,1.018,0.635,1.233,0.888,0.404,0.696,0.652,��,9.1,��
2020/06/01,14:50,0.708,1.018,0.649,1.232,0.888,0.404,0.696,0.651,��,6.9,��
2020/06/01,15:00,0.708,1.020,0.651,1.233,0.887,0.405,0.697,0.653,��,7.1,��
2020/06/01,15:10,0.707,1.019,0.649,1.232,0.888,0.404,0.696,0.652,��,7.5,��
2020/06/01,15:20,0.709,1.023,0.650,1.231,0.890,0.406,0.697,0.651,��,6.0,��
2020/06/01,15:30,0.708,1.022,0.649,1.232,0.887,0.402,0.696,0.652,��,6.8,��
2020/06/01,15:40,0.709,1.021,0.650,1.232,0.888,0.402,0.696,0.653,��쓌,7.7,��
2020/06/01,15:50,0.707,1.023,0.651,1.234,0.885,0.405,0.696,0.652,��,5.9,��
2020/06/01,16:00,0.708,1.022,0.652,1.231,0.887,0.404,0.695,0.652,��,6.7,��
2020/06/01,16:10,0.707,1.021,0.651,1.232,0.887,0.404,0.696,0.653,��,8.3,��
2020/06/01,16:20,0.708,1.023,0.651,1.233,0.886,0.404,0.696,0.651,��,7.1,��
2020/06/01,16:30,0.708,1.020,0.650,1.233,0.885,0.405,0.696,0.652,��,6.9,��
2020/06/01,16:40,0.707,1.024,0.651,1.231,0.889,0.404,0.696,0.651,��,9.1,��
2020/06/01,16:50,0.707,1.022,0.650,1.232,0.886,0.405,0.696,0.653,��,7.3,��
2020/06/01,17:00,0.707,1.022,0.653,1.236,0.888,0.404,0.695,0.654,��,6.6,��
2020/06/01,17:10,0.707,1.020,0.650,1.235,0.886,0.404,0.695,0.653,��,6.5,��
2020/06/01,17:20,0.707,1.023,0.651,1.233,0.885,0.404,0.695,0.653,��,7.9,��
2020/06/01,17:30,0.706,1.020,0.651,1.236,0.885,0.405,0.696,0.654,��,9.0,��
2020/06/01,17:40,0.709,1.021,0.650,1.234,0.887,0.403,0.696,0.654,��,9.8,��
2020/06/01,17:50,0.707,1.022,0.652,1.235,0.887,0.403,0.696,0.652,��,9.4,��
2020/06/01,18:00,0.706,1.021,0.652,1.235,0.886,0.404,0.697,0.651,��,7.8,��
2020/06/01,18:10,0.706,1.022,0.652,1.234,0.886,0.401,0.697,0.652,��,7.8,��
2020/06/01,18:20,0.707,1.022,0.651,1.235,0.888,0.403,0.697,0.651,��,9.3,��
2020/06/01,18:30,0.707,1.023,0.652,1.234,0.887,0.404,0.696,0.651,��,8.7,��
2020/06/01,18:40,0.707,1.022,0.652,1.235,0.885,0.403,0.697,0.652,��,8.8,��
2020/06/01,18:50,0.708,1.019,0.653,1.235,0.890,0.404,0.696,0.652,��,9.9,��
2020/06/01,19:00,0.708,1.023,0.653,1.234,0.887,0.405,0.697,0.654,��,7.4,��
2020/06/01,19:10,0.709,1.023,0.654,1.234,0.887,0.403,0.698,0.654,��,9.0,��
2020/06/01,19:20,0.707,1.022,0.652,1.235,0.887,0.404,0.697,0.655,��,9.6,��
2020/06/01,19:30,0.707,1.022,0.652,1.233,0.889,0.405,0.697,0.654,��,9.7,��
2020/06/01,19:40,0.707,1.020,0.652,1.235,0.885,0.404,0.697,0.653,��,9.4,��
2020/06/01,19:50,0.707,1.021,0.650,1.236,0.887,0.405,0.698,0.655,��,8.0,��
2020/06/01,20:00,0.707,1.021,0.652,1.233,0.886,0.404,0.696,0.654,��,8.5,��
2020/06/01,20:10,0.708,1.023,0.652,1.236,0.888,0.405,0.697,0.655,��,8.8,��
2020/06/01,20:20,0.709,1.021,0.654,1.236,0.887,0.405,0.696,0.654,��,8.5,��
2020/06/01,20:30,0.708,1.027,0.652,1.235,0.887,0.405,0.696,0.653,��,8.9,��
2020/06/01,20:40,0.708,1.025,0.653,1.233,0.887,0.406,0.698,0.654,��,7.4,��
2020/06/01,20:50,0.708,1.024,0.655,1.235,0.887,0.405,0.698,0.655,��,7.8,��
2020/06/01,21:00,0.707,1.024,0.652,1.235,0.889,0.405,0.698,0.655,��,7.3,��
2020/06/01,21:10,0.706,1.024,0.653,1.235,0.885,0.404,0.698,0.655,��,7.0,��
2020/06/01,21:20,0.708,1.025,0.655,1.233,0.887,0.404,0.698,0.654,��,6.4,��
2020/06/01,21:30,0.707,1.023,0.653,1.233,0.888,0.406,0.696,0.654,��,7.0,��
2020/06/01,21:40,0.708,1.023,0.653,1.237,0.886,0.404,0.698,0.654,��,7.8,��
2020/06/01,21:50,0.709,1.025,0.653,1.236,0.886,0.405,0.698,0.654,��,8.2,��
2020/06/01,22:00,0.710,1.025,0.653,1.232,0.888,0.404,0.697,0.655,��,8.8,��
2020/06/01,22:10,0.712,1.025,0.654,1.235,0.888,0.405,0.698,0.654,��,7.9,��
2020/06/01,22:20,0.711,1.026,0.654,1.232,0.891,0.405,0.697,0.654,��,7.4,��
2020/06/01,22:30,0.710,1.025,0.653,1.237,0.888,0.406,0.700,0.654,��,7.3,��
2020/06/01,22:40,0.710,1.025,0.654,1.234,0.887,0.405,0.699,0.654,��,7.0,��
2020/06/01,22:50,0.710,1.023,0.655,1.235,0.888,0.406,0.699,0.656,��,6.6,��
2020/06/01,23:00,0.710,1.023,0.655,1.235,0.889,0.404,0.699,0.656,��,6.6,��
2020/06/01,23:10,0.709,1.023,0.652,1.233,0.890,0.406,0.698,0.653,��,7.8,��
2020/06/01,23:20,0.708,1.021,0.654,1.233,0.888,0.406,0.699,0.656,��,6.9,��
2020/06/01,23:30,0.708,1.024,0.655,1.236,0.887,0.404,0.698,0.655,��,8.1,��
2020/06/01,23:40,0.708,1.020,0.654,1.236,0.890,0.405,0.697,0.654,��,7.4,��
2020/06/01,23:50,0.708,1.019,0.653,1.236,0.890,0.404,0.696,0.655,��,8.9,��
